Temp
10 10 10 9 9 8 8 8 9 9 9 9 9 8 8 8 9 9 9 9 9 9 9 9 9 9 9 9 9 9 9 9 9 9 9 9 9 9 10 9 10 10 9
10 10 10 10 9 9 9 9 9 9 9 8 8 8 8 8 9 9 9 9 9 9 10 9 9 10 10 9 9 9 9 9 9 9 9 9 9 9 10 10 10 9 9
10 10 10 10 10 10 9 9 9 9 9 9 9 8 8 8 9 9 8 9 9 9 9 9 9 9 10 9 9 9 9 9 10 10 9 9 9 9 10 10 10 10 10
11 10 10 10 10 10 9 9 9 9 9 9 9 8 8 8 9 9 9 9 9 9 9 9 9 9 9 9 10 10 10 10 10 10 10 10 10 9 9 9 9 9 9
11 10 10 10 10 10 9 9 9 8 9 9 9 9 9 9 9 9 9 9 9 9 9 9 10 9 9 9 9 9 10 10 10 10 10 10 10 10 10 10 10 10 9
11 10 10 9 9 9 9 9 9 9 9 9 9 9 9 9 9 9 9 9 9 9 9 9 10 10 10 9 10 10 10 10 10 10 10 10 10 10 10 10 10 10 10
11 10 10 9 9 9 9 9 9 9 9 9 9 9 9 9 9 10 10 10 10 10 10 9 9 9 9 10 10 10 10 10 10 10 10 10 10 10 10 10 10 10 10
11 10 10 9 9 9 9 9 9 9 9 8 9 9 9 9 9 9 9 9 10 10 10 10 9 9 9 9 9 9 9 9 9 9 9 9 9 9 9 9 10 10 9
11 11 10 10 9 9 9 9 9 9 9 9 9 9 9 9 8 8 8 9 9 10 9 9 9 9 9 9 9 9 9 9 9 9 9 9 9 9 9 9 9 9 9
11 11 10 10 9 9 9 9 8 8 8 9 9 9 9 9 9 8 8 8 9 9 9 9 9 9 9 9 9 9 9 9 9 9 9 9 8 8 8 8 8 8 9
11 11 11 10 10 9 9 8 8 8 8 8 9 9 9 9 9 8 8 7 8 9 9 9 9 9 9 9 9 9 9 9 9 9 9 8 8 8 8 8 8 8 8
10 10 10 10 10 9 9 9 8 9 9 9 9 9 9 9 9 9 9 7 7 9 10 9 10 10 9 9 9 10 10 9 9 9 9 8 8 7 7 7 8 7 8
9 9 10 10 10 9 9 9 9 9 9 9 9 9 9 9 9 9 9 10 10 10 10 10 10 9 9 10 10 9 9 9 9 9 8 8 7 7 7 7 7 7 8
9 9 9 10 10 10 10 9 10 9 9 10 9 9 9 9 10 10 10 10 10 10 11 11 10 10 10 10 9 9 9 8 8 8 8 7 7 7 7 7 7 7 7
7 8 8 9 9 9 10 9 10 10 9 10 10 9 9 9 10 10 10 10 10 10 10 10 10 10 9 8 8 8 8 8 8 7 7 7 7 7 7 7 7 7 7
6 7 7 8 8 8 8 8 9 10 9 9 9 9 9 9 10 10 10 10 10 10 10 10 10 10 10 9 8 8 7 7 7 7 7 7 7 7 7 7 7 7 7
7 7 7 7 8 8 9 9 9 9 9 9 9 9 9 9 10 10 10 10 10 10 10 10 10 9 9 8 8 8 7 7 7 7 7 6 6 6 6 6 6 6 6
6 7 7 7 8 9 9 9 9 9 8 9 9 9 9 10 10 10 10 10 10 10 10 10 10 10 8 8 8 7 7 6 6 6 6 6 6 6 6 6 6 6 6
6 7 7 8 9 9 9 10 10 9 8 8 8 9 10 10 9 10 10 10 10 10 10 10 10 10 9 8 7 7 7 7 6 6 6 5 6 5 6 6 6 6 6
6 6 7 7 8 9 8 9 8 7 7 7 8 8 9 9 9 10 10 10 9 9 9 9 10 10 9 8 7 6 6 6 6 6 6 5 5 5 6 5 5 5 6
6 6 7 7 7 7 7 7 6 6 6 6 7 8 9 9 9 9 9 9 9 9 9 9 9 9 9 7 6 5 6 6 6 5 5 5 5 5 5 6 6 6 6
6 6 6 6 6 6 6 6 6 5 5 6 7 8 8 9 9 9 9 8 8 8 8 8 8 8 8 7 6 6 5 6 6 5 5 5 5 5 5 5 6 6 6
5 5 6 6 6 6 5 5 5 4 4 5 6 7 8 8 8 8 8 8 8 8 8 8 7 7 7 6 5 5 5 5 5 5 5 6 6 6 5 5 6 6 5
5 6 6 6 6 5 5 4 3 3 4 5 6 6 7 7 7 7 7 7 8 8 8 7 7 6 6 5 5 5 5 5 5 5 5 5 6 6 6 6 5 5 5
5 5 5 5 6 5 4 4 5 4 4 4 5 6 6 6 6 6 6 7 7 7 7 7 7 6 5 5 4 4 5 5 5 5 6 6 6 6 6 5 5 5 5
5 5 5 5 4 4 3 4 4 5 4 5 5 5 5 5 5 5 5 6 6 6 6 6 6 5 5 4 4 5 5 5 5 5 5 6 6 6 6 5 5 5 4
Height
3164 3164 3166 3168 3169 3172 3176 3180 3183 3184 3187 3189 3191 3193 3195 3196 3199 3201 3203 3204 3204 3206 3207 3208 3207 3209 3209 3210 3210 3211 3212 3213 3214 3213 3213 3213 3213 3214 3214 3215 3214 3214 3214
3163 3162 3164 3165 3166 3168 3173 3177 3180 3183 3184 3187 3189 3191 3192 3193 3195 3198 3200 3200 3201 3203 3204 3206 3205 3205 3207 3208 3209 3209 3210 3210 3210 3211 3211 3211 3211 3212 3212 3212 3212 3211 3211
3160 3161 3161 3163 3163 3165 3168 3173 3176 3180 3181 3183 3186 3187 3189 3191 3192 3194 3195 3196 3197 3199 3201 3202 3202 3203 3204 3206 3207 3208 3208 3208 3208 3208 3208 3208 3209 3208 3208 3208 3208 3208 3207
3157 3158 3158 3160 3162 3164 3165 3167 3171 3175 3178 3179 3182 3184 3185 3186 3188 3189 3190 3191 3193 3195 3196 3198 3199 3199 3200 3201 3203 3204 3204 3204 3204 3204 3204 3204 3204 3204 3204 3203 3203 3203 3202
3153 3155 3156 3157 3159 3160 3162 3164 3167 3169 3172 3175 3177 3179 3180 3181 3183 3185 3185 3186 3188 3190 3191 3192 3193 3194 3195 3196 3197 3198 3199 3200 3199 3199 3199 3199 3199 3199 3199 3199 3199 3198 3198
3148 3151 3152 3154 3155 3157 3158 3160 3162 3164 3166 3168 3171 3173 3175 3176 3178 3179 3180 3181 3184 3185 3187 3188 3188 3189 3190 3191 3192 3193 3194 3194 3194 3194 3195 3195 3196 3195 3194 3193 3193 3193 3193
3141 3144 3147 3148 3150 3152 3154 3155 3157 3160 3161 3163 3165 3167 3169 3170 3172 3174 3175 3177 3178 3179 3181 3182 3184 3184 3185 3185 3186 3187 3188 3189 3189 3188 3188 3189 3189 3189 3188 3188 3187 3186 3186
3132 3136 3140 3143 3145 3147 3149 3151 3153 3154 3156 3157 3159 3161 3164 3166 3167 3169 3170 3170 3172 3174 3175 3176 3177 3178 3179 3180 3180 3181 3182 3183 3183 3182 3182 3182 3182 3182 3181 3181 3181 3180 3179
3125 3129 3132 3135 3138 3141 3143 3146 3148 3149 3151 3153 3154 3156 3158 3159 3160 3161 3162 3164 3166 3167 3169 3170 3170 3171 3172 3173 3174 3175 3175 3176 3175 3175 3174 3175 3174 3174 3175 3174 3174 3173 3172
3117 3121 3124 3128 3130 3133 3137 3140 3142 3143 3145 3146 3147 3149 3151 3152 3153 3154 3153 3154 3155 3159 3161 3163 3164 3164 3165 3165 3165 3166 3166 3169 3168 3168 3167 3167 3167 3167 3168 3167 3166 3165 3164
3110 3114 3117 3120 3123 3127 3129 3131 3134 3136 3137 3138 3141 3143 3143 3145 3146 3145 3145 3141 3145 3150 3152 3154 3155 3156 3157 3157 3157 3158 3159 3160 3161 3160 3159 3159 3159 3159 3160 3159 3158 3158 3157
3103 3108 3110 3114 3116 3120 3123 3125 3126 3129 3130 3131 3132 3134 3136 3137 3139 3140 3140 3137 3140 3143 3145 3145 3147 3148 3149 3150 3151 3151 3152 3151 3152 3153 3152 3152 3151 3151 3151 3151 3151 3151 3150
3096 3099 3102 3106 3109 3112 3114 3117 3119 3121 3123 3124 3125 3127 3129 3131 3133 3133 3134 3134 3136 3138 3139 3140 3141 3142 3143 3144 3145 3145 3145 3146 3147 3147 3146 3146 3146 3146 3145 3145 3145 3144 3142
3085 3089 3091 3097 3100 3103 3106 3108 3111 3113 3115 3118 3119 3120 3121 3124 3126 3127 3127 3127 3128 3129 3130 3131 3133 3135 3137 3138 3138 3139 3140 3141 3141 3141 3141 3140 3140 3140 3140 3140 3138 3137 3136
3074 3078 3081 3085 3089 3093 3095 3098 3102 3104 3107 3111 3113 3114 3114 3117 3119 3120 3120 3121 3122 3122 3124 3125 3127 3128 3130 3131 3132 3133 3134 3135 3135 3135 3135 3135 3135 3135 3134 3133 3132 3132 3131
3065 3069 3072 3074 3078 3080 3084 3088 3091 3095 3098 3103 3105 3106 3108 3111 3112 3113 3113 3113 3116 3117 3118 3119 3120 3121 3123 3124 3125 3126 3127 3128 3128 3129 3129 3129 3129 3128 3128 3127 3127 3126 3125
3055 3060 3063 3066 3068 3070 3073 3076 3079 3085 3089 3093 3096 3099 3101 3104 3106 3108 3109 3109 3110 3111 3112 3113 3113 3114 3116 3118 3118 3119 3119 3120 3121 3122 3122 3122 3123 3123 3122 3122 3122 3121 3120
3044 3048 3051 3055 3058 3060 3063 3065 3068 3072 3078 3083 3087 3091 3095 3098 3099 3103 3103 3103 3104 3105 3105 3106 3107 3108 3110 3111 3112 3113 3114 3115 3115 3115 3116 3117 3117 3118 3118 3117 3116 3116 3115
3034 3038 3041 3044 3047 3048 3049 3052 3055 3059 3065 3072 3077 3081 3088 3091 3093 3095 3097 3098 3098 3099 3100 3100 3101 3102 3103 3105 3106 3107 3107 3108 3109 3109 3110 3111 3112 3112 3112 3111 3111 3111 3110
3025 3029 3032 3033 3036 3036 3036 3037 3040 3046 3053 3061 3067 3073 3079 3083 3087 3089 3091 3092 3093 3094 3095 3093 3095 3095 3096 3099 3100 3101 3101 3102 3103 3103 3104 3105 3105 3106 3105 3105 3105 3105 3105
3017 3020 3024 3025 3026 3028 3029 3029 3031 3037 3046 3053 3060 3066 3071 3075 3079 3082 3084 3086 3087 3089 3089 3089 3089 3089 3090 3092 3094 3095 3095 3096 3097 3098 3098 3099 3099 3100 3100 3100 3099 3100 3100
3012 3014 3017 3019 3020 3021 3022 3017 3019 3028 3037 3047 3053 3058 3063 3068 3072 3074 3077 3079 3080 3081 3082 3082 3082 3082 3082 3085 3088 3089 3088 3089 3090 3091 3092 3093 3093 3093 3093 3093 3094 3094 3094
3008 3010 3012 3013 3015 3017 3020 3022 3022 3024 3033 3042 3047 3052 3057 3061 3064 3066 3069 3071 3072 3073 3073 3073 3074 3075 3076 3078 3081 3083 3083 3084 3084 3084 3085 3085 3086 3087 3087 3087 3088 3089 3088
3004 3005 3007 3008 3009 3011 3015 3019 3019 3025 3030 3036 3042 3046 3049 3052 3055 3058 3060 3061 3062 3063 3063 3064 3065 3067 3069 3072 3074 3075 3076 3077 3077 3078 3078 3078 3079 3080 3081 3081 3081 3082 3082
3001 3002 3003 3004 3003 3001 3006 3013 3014 3022 3024 3030 3035 3038 3040 3043 3047 3049 3050 3051 3052 3053 3054 3055 3057 3059 3061 3064 3066 3067 3069 3069 3070 3071 3071 3070 3071 3071 3072 3073 3074 3074 3075
2995 2998 3000 3000 3002 3006 3008 3008 3012 3016 3020 3026 3029 3030 3032 3036 3039 3040 3041 3042 3044 3045 3046 3047 3049 3051 3053 3056 3059 3061 3061 3062 3062 3063 3063 3063 3064 3063 3064 3065 3066 3066 3067
Wind_Speed
8 12 14 14 15 24 25 21 19 17 19 17 17 15 14 13 13 12 11 10 11 11 11 11 10 10 11 9 10 10 12 12 12 13 12 11 14 15 14 14 13 16 15
11 11 13 15 14 23 24 23 23 21 17 17 19 17 13 13 14 13 12 12 12 13 14 13 12 11 11 10 10 9 10 10 10 11 13 13 14 14 15 16 16 16 16
13 12 12 15 16 17 26 25 25 21 16 16 16 14 15 16 16 16 16 14 15 15 16 16 15 14 13 14 14 14 14 13 13 13 12 12 13 15 16 18 18 19 19
15 13 13 13 15 17 21 27 26 24 21 20 19 18 18 19 19 19 20 20 18 18 20 19 17 17 17 18 18 17 16 16 16 15 15 15 14 14 15 17 19 21 21
20 17 13 15 16 19 21 23 25 25 22 21 21 21 20 20 21 20 21 21 21 20 21 21 20 20 20 20 20 19 19 19 19 18 18 17 18 19 20 20 19 21 22
23 19 17 17 19 19 20 23 25 25 24 23 23 21 22 22 21 22 24 24 23 23 22 22 21 20 20 21 21 21 21 22 21 21 22 22 22 22 22 22 22 22 21
27 24 22 20 21 22 22 23 22 22 22 21 21 21 21 21 20 23 25 26 25 24 21 20 20 21 21 21 21 21 21 21 21 22 23 23 23 23 24 24 24 24 25
30 29 26 23 22 23 25 25 24 24 23 22 22 22 22 21 20 20 23 26 26 26 24 22 22 22 22 23 24 24 24 25 25 26 26 25 25 25 25 25 25 26 27
33 32 31 28 26 27 27 25 25 25 25 24 23 23 22 21 21 22 25 28 28 28 27 27 25 25 25 27 29 28 29 29 30 30 30 30 30 29 28 27 27 29 30
30 34 32 33 30 27 28 26 24 23 22 23 23 23 22 22 23 27 28 34 38 33 30 30 29 27 27 28 29 30 30 27 28 29 31 31 32 31 29 30 32 30 30
27 30 32 36 33 29 28 28 28 26 26 27 25 25 23 21 25 26 29 33 39 35 31 31 29 28 28 28 29 28 27 27 28 30 31 31 31 30 30 29 27 26 27
27 29 30 35 34 32 31 30 31 30 30 29 26 26 23 20 24 26 27 19 25 31 32 31 31 28 28 28 28 29 27 26 25 24 24 23 22 21 20 21 23 26 28
19 24 23 32 35 35 36 34 33 32 33 31 29 28 24 22 24 26 26 26 27 31 31 31 28 29 28 28 27 24 22 22 22 21 20 19 19 20 22 23 25 26 29
39 35 30 29 36 37 37 39 38 36 34 31 29 26 24 24 25 25 24 26 26 25 26 27 28 27 26 23 22 22 22 21 21 20 21 21 20 19 19 22 24 22 21
35 37 30 31 35 41 45 39 36 32 29 30 27 25 23 24 24 25 23 22 24 23 23 24 24 23 22 20 19 19 19 19 19 18 17 18 19 21 20 18 17 18 18
34 31 31 34 36 35 43 44 40 39 36 33 31 28 25 24 24 24 23 21 21 21 21 22 22 22 22 22 22 22 21 20 19 18 18 19 18 16 14 15 15 15 15
39 36 33 34 31 35 37 39 40 42 38 38 35 31 26 24 22 23 21 19 20 20 20 21 21 22 24 24 24 22 20 18 18 19 18 15 13 13 13 13 14 14 14
39 38 39 35 35 36 38 35 41 42 40 35 33 29 27 24 20 20 18 15 13 14 17 19 20 22 22 23 22 19 19 19 19 18 16 15 14 13 14 14 14 14 14
32 35 36 35 37 35 38 40 38 44 42 35 34 31 32 25 21 19 17 12 10 9 11 14 17 20 22 23 21 21 21 19 18 17 16 15 15 15 14 14 15 15 14
27 28 30 32 31 34 32 30 33 43 42 39 37 35 33 28 24 21 19 15 11 10 11 12 16 19 22 22 22 22 20 19 19 18 18 17 16 17 16 15 15 15 15
24 24 24 29 31 26 22 26 33 41 41 34 35 33 30 27 27 24 21 19 16 15 14 16 18 20 22 23 23 22 20 20 20 20 19 20 19 18 18 16 16 16 16
20 18 18 19 22 22 29 17 31 31 29 29 28 28 27 27 25 22 21 21 18 18 18 19 21 22 23 24 24 24 23 22 21 21 22 22 21 21 20 18 18 18 17
17 18 17 17 19 21 28 31 27 29 26 20 20 20 22 25 24 23 23 23 21 21 21 23 24 25 25 24 25 25 24 23 23 23 23 21 21 23 23 21 20 19 18
13 15 16 19 17 27 28 26 19 23 20 18 18 19 21 24 25 26 28 28 26 25 25 26 25 26 26 26 26 25 24 24 25 24 24 25 22 20 21 21 21 20 19
13 13 14 14 9 24 35 31 18 20 22 20 18 20 22 24 26 25 26 27 27 25 24 24 25 26 27 28 28 27 26 26 27 27 26 26 23 22 23 23 23 21 21
12 11 15 16 17 13 20 21 18 16 15 19 20 23 23 23 23 25 26 25 22 20 20 22 24 25 26 28 28 26 27 28 28 27 26 26 26 26 24 22 22 22 22
Wind_Direction
232 218 215 207 207 205 211 208 210 214 218 224 223 219 226 232 241 236 245 252 251 254 257 241 238 237 240 255 262 266 257 256 255 260 265 258 241 252 260 263 265 258 263
236 225 218 208 207 206 205 211 215 215 213 226 226 222 227 238 240 247 241 252 256 256 256 257 255 247 250 254 251 258 260 266 269 265 267 274 266 269 268 267 274 266 260
227 230 222 217 213 208 205 204 208 217 217 227 216 224 242 251 250 249 236 241 248 257 257 259 263 264 265 264 262 264 267 273 281 282 282 286 284 279 278 274 272 275 277
233 232 226 223 222 216 210 211 215 223 228 226 237 239 241 248 249 242 249 254 255 257 260 259 260 262 264 266 268 271 273 278 280 282 284 285 287 293 294 288 285 280 280
230 234 232 225 221 218 216 215 215 219 224 230 238 243 242 243 247 246 251 252 258 259 261 262 263 266 267 266 267 268 273 275 277 279 279 278 279 282 283 283 285 280 281
231 226 227 233 226 222 219 218 218 221 223 228 235 238 242 244 245 248 249 250 254 256 257 261 263 266 268 268 267 267 270 273 274 278 282 286 288 287 285 286 287 281 283
221 226 228 229 232 228 222 218 217 219 219 224 231 237 240 245 250 255 257 257 252 251 252 257 264 266 265 266 267 269 271 273 276 279 281 279 279 280 284 286 288 288 286
223 220 220 227 230 231 226 223 226 228 229 229 235 245 252 255 257 261 261 262 261 258 252 249 251 256 262 264 265 266 266 269 273 275 279 280 278 279 280 283 286 289 289
226 225 223 222 226 229 232 228 229 233 237 242 244 247 253 251 249 253 257 267 263 257 256 253 254 260 265 268 270 272 272 272 275 276 277 277 276 275 279 283 287 288 287
227 226 224 223 223 224 224 230 228 230 237 241 242 246 254 255 258 258 257 271 261 248 251 257 258 264 269 271 272 273 275 275 272 274 275 274 275 277 279 281 285 286 287
232 225 225 225 225 223 219 223 224 227 231 238 248 252 251 259 258 265 274 272 236 245 250 257 262 267 269 269 270 273 276 275 275 276 276 276 277 280 281 280 278 280 284
227 225 229 224 227 225 228 229 227 233 244 250 251 254 255 250 253 262 263 260 233 242 249 257 259 262 261 261 265 266 270 272 272 275 280 280 279 280 280 280 283 286 290
241 221 228 231 226 227 229 228 230 238 249 248 248 251 253 251 252 259 263 258 250 252 254 253 257 259 261 263 263 263 266 268 268 272 272 270 271 275 280 284 287 290 293
240 253 246 232 232 229 227 230 235 235 241 249 245 244 248 255 258 259 256 253 253 252 252 254 255 256 257 258 259 261 264 266 266 265 266 270 274 278 281 286 290 291 293
238 242 243 244 229 227 229 230 233 236 239 247 251 239 245 253 260 258 254 254 253 252 253 253 254 255 253 253 254 256 258 261 262 262 265 269 275 281 284 286 288 291 294
246 242 241 240 239 240 240 242 240 239 243 251 245 236 235 246 254 256 255 254 256 258 258 255 253 253 253 251 253 256 259 260 260 262 268 273 274 274 276 281 284 286 293
247 247 247 242 248 247 246 247 250 250 246 245 247 238 231 240 246 251 249 246 246 248 250 251 249 248 249 252 254 253 252 253 257 263 265 263 262 268 273 277 280 284 285
251 252 256 260 260 257 246 251 243 244 240 236 238 227 235 238 238 241 238 234 240 248 251 253 253 251 251 252 248 245 247 251 256 258 258 257 261 270 276 279 278 276 277
247 250 256 260 260 258 253 252 248 229 227 229 220 220 231 234 238 239 236 231 245 255 268 267 262 258 253 246 242 244 248 251 251 248 249 251 259 262 272 275 274 272 277
240 239 249 254 252 259 259 252 235 215 214 212 217 220 226 231 236 238 237 232 248 265 277 275 270 263 253 247 246 248 250 251 249 246 248 251 256 259 262 267 273 274 279
234 245 251 246 245 245 250 244 211 211 207 206 214 218 223 229 234 235 237 235 248 261 277 283 270 263 257 250 250 250 251 252 249 248 250 257 258 261 266 269 269 271 271
241 246 245 254 252 264 236 240 182 183 192 206 210 213 219 228 233 234 238 243 243 256 270 276 262 256 257 253 252 252 249 248 249 251 253 258 260 259 260 261 262 262 261
245 247 252 255 251 243 224 214 198 184 178 196 204 215 227 234 234 235 239 242 250 263 268 270 259 255 254 252 251 253 252 253 255 255 260 261 263 261 258 257 258 259 258
249 250 253 255 272 235 212 205 185 178 188 205 215 222 230 233 234 235 238 244 252 260 263 263 257 250 252 251 251 251 251 251 255 258 261 266 264 265 254 252 252 254 256
247 241 242 237 287 222 195 181 206 192 196 200 218 234 231 228 231 240 248 254 257 258 259 257 251 247 247 244 246 249 251 249 252 256 258 261 260 259 248 248 250 252 254
253 250 234 232 222 231 210 215 242 232 248 251 249 246 241 243 250 251 256 258 256 256 255 255 252 247 244 246 249 250 253 255 253 254 256 257 259 259 251 252 250 251 252